Simultaneous Nadir Overpasses (SNOs) Predictions

Prediction of SNOs between LANDSAT-8 and METOP-A Satellite Orbit:

Table of predicted SNOs for the next 14.0 days since TLE Epoch: 6/12/2021
Index Date (LANDSAT-8) Time (LANDSAT-8) Lat,Lon (LANDSAT-8) SZA (LANDSAT-8 ) Date (METOP-A) Time (METOP-A) Lat,Lon (METOP-A) SZA (METOP-A ) Distance(km) Time Diff (sec)
1 06/14/2021 04:00:55 81.37, 164.13 60.68 06/14/2021 04:00:42 81.37, 164.23 60.68 1.65 13
2 06/14/2021 04:50:22 -81.37, -28.34 119.35 06/14/2021 04:51:22 -81.36, -28.15 119.30 3.25 60
3 06/16/2021 23:35:10 81.37,-129.38 60.56 06/16/2021 23:35:03 81.37,-129.54 60.54 2.64 7
4 06/17/2021 00:24:37 -81.37, 38.18 119.46 06/17/2021 00:25:43 -81.36, 38.10 119.44 1.45 66
5 06/19/2021 18:20:00 -81.37, 129.34 119.52 06/19/2021 18:18:57 -81.50, 124.34 119.98 84.03 63
6 06/19/2021 19:09:26 81.37, -62.93 60.49 06/19/2021 19:09:24 81.37, -62.94 60.48 1.11 2
7 06/19/2021 19:58:54 -81.35, 104.27 119.58 06/19/2021 20:00:05 -81.37, 104.33 119.53 1.84 71
8 06/22/2021 13:54:16 -81.37,-164.21 119.54 06/22/2021 13:53:06 -81.38,-164.33 119.58 2.21 70
9 06/22/2021 14:43:43 81.35, 3.11 60.42 06/22/2021 14:43:46 81.37, 3.26 60.45 3.00 3
10 06/25/2021 09:28:31 -81.37, -97.79 119.50 06/25/2021 09:27:26 -81.37, -97.75 119.53 0.73 65



Historial Predications of SNOs between LANDSAT-8 and METOP-A
